Location: *
(46.4000°N, 12.6667°E)
Time: 09:11:23
(UTC+00:00)

FALCON 9 DEB - Pass Details

Date: 09 April 2020
Orbit: 429 x 441 km, 53.0° (Epoch: 23 May)

Event Time Altitude Azimuth Distance (km) Brightness Sun altitude
Rises 19:26:58 0° 247° (WSW) 2,425 7.4 -16.4°
Reaches altitude 10° 19:29:06 10° 251° (WSW) 1,557 6.5 -16.7°
Maximum altitude 19:32:34 64° 334° (NNW) 495 3.5 -17.2°
Enters shadow 19:35:01 18° 53° (NE) 1,153 5.1 -17.6°
